Location: Cahas Mountain Overlook
(37.0833°N, 80.1000°W)
Time: 06:53:23
(UTC-04:00)

Tiros 1 - Pass Details

Date: 11 February 2026
Orbit: 618 x 650 km, 48.4° (Epoch: 14 March)

Event Time Altitude Azimuth Distance (km) Brightness Sun altitude
Rises 17:33:39 0° 303° (WNW) 2,885 11.1 3.4°
Reaches altitude 10° 17:35:57 10° 301° (WNW) 1,979 10.3 3.0°
Maximum altitude 17:40:29 70° 218° (SW) 660 7.6 2.2°
Drops below altitude 10° 17:45:00 10° 135° (SE) 1,983 9.4 1.3°
Sets 17:47:19 0° 133° (SE) 2,891 10.2 0.9°
